Time,TemperatureF,DewpointF,PressureIn,WindDirection,WindDirectionDegrees,WindSpeedMPH,WindSpeedGustMPH,Humidity,HourlyPrecipIn,Conditions,Clouds,dailyrainin,SolarRadiationWatts/m^2,SoftwareType,DateUTC
2013-03-06 00:02:00,33.0,26.0,-100.00,NW,314,4.0,17.0,76,0.00,,,0.99,0.000000,,2013-03-06 05:02:00,
2013-03-06 00:32:00,32.0,24.0,-100.00,NW,304,7.0,20.0,72,0.00,,,0.99,0.000000,,2013-03-06 05:32:00,
2013-03-06 00:42:00,32.0,24.0,-100.00,NW,304,7.0,20.0,72,0.00,,,0.99,0.000000,,2013-03-06 05:42:00,
2013-03-06 00:52:00,32.0,24.0,-100.00,NW,304,7.0,20.0,72,0.00,,,0.99,0.000000,,2013-03-06 05:52:00,
2013-03-06 01:02:00,32.0,24.0,-100.00,NW,304,7.0,20.0,72,0.00,,,0.99,0.000000,,2013-03-06 06:02:00,
2013-03-06 01:32:00,31.0,24.0,-100.00,NW,323,4.0,14.0,74,0.00,,,0.99,0.000000,,2013-03-06 06:32:00,
2013-03-06 01:42:00,31.0,24.0,-100.00,NW,323,4.0,14.0,74,0.00,,,0.99,0.000000,,2013-03-06 06:42:00,
2013-03-06 01:52:00,31.0,24.0,-100.00,NW,323,4.0,14.0,74,0.00,,,0.99,0.000000,,2013-03-06 06:52:00,
2013-03-06 02:01:00,31.0,24.0,-100.00,NW,323,4.0,14.0,74,0.00,,,0.99,0.000000,,2013-03-06 07:01:00,
2013-03-06 02:32:00,29.0,27.0,-100.00,WNW,290,10.0,24.0,93,0.00,,,0.99,0.000000,,2013-03-06 07:32:00,
2013-03-06 02:42:00,29.0,27.0,-100.00,WNW,290,10.0,24.0,93,0.00,,,0.99,0.000000,,2013-03-06 07:42:00,
2013-03-06 02:52:00,29.0,27.0,-100.00,WNW,290,10.0,24.0,93,0.00,,,0.99,0.000000,,2013-03-06 07:52:00,
2013-03-06 03:01:00,29.0,27.0,-100.00,WNW,290,10.0,24.0,93,0.00,,,0.99,0.000000,,2013-03-06 08:01:00,
2013-03-06 03:32:00,27.0,20.0,-100.00,WNW,294,11.0,25.0,76,0.00,,,-99.99,0.000000,,2013-03-06 08:32:00,
2013-03-06 03:42:00,27.0,20.0,-100.00,WNW,294,11.0,25.0,76,0.00,,,-99.99,0.000000,,2013-03-06 08:42:00,
2013-03-06 03:52:00,27.0,20.0,-100.00,WNW,294,11.0,25.0,76,0.00,,,-99.99,0.000000,,2013-03-06 08:52:00,
2013-03-06 04:02:00,27.0,20.0,-100.00,WNW,294,11.0,25.0,76,0.00,,,-99.99,0.000000,,2013-03-06 09:02:00,
2013-03-06 04:32:00,26.0,20.0,-100.00,NW,309,7.0,26.0,78,0.00,,,0.99,0.000000,,2013-03-06 09:32:00,
2013-03-06 04:42:00,26.0,20.0,-100.00,NW,309,7.0,26.0,78,0.00,,,0.99,0.000000,,2013-03-06 09:42:00,
2013-03-06 04:52:00,26.0,20.0,-100.00,NW,309,7.0,26.0,78,0.00,,,0.99,0.000000,,2013-03-06 09:52:00,
2013-03-06 05:02:00,26.0,20.0,-100.00,NW,309,7.0,26.0,78,0.00,,,0.99,0.000000,,2013-03-06 10:02:00,
2013-03-06 05:32:00,27.0,19.0,-100.00,NW,316,8.0,22.0,71,0.00,,,0.99,0.000000,,2013-03-06 10:32:00,
2013-03-06 05:42:00,27.0,19.0,-100.00,NW,316,8.0,22.0,71,0.00,,,0.99,0.000000,,2013-03-06 10:42:00,
2013-03-06 05:52:00,27.0,19.0,-100.00,NW,316,8.0,22.0,71,0.00,,,0.99,0.000000,,2013-03-06 10:52:00,
2013-03-06 06:02:00,27.0,19.0,-100.00,NW,316,8.0,22.0,71,0.00,,,0.99,0.000000,,2013-03-06 11:02:00,
2013-03-06 06:32:00,27.0,21.0,-100.00,NW,308,7.0,20.0,79,0.00,,,0.99,0.000000,,2013-03-06 11:32:00,
2013-03-06 06:42:00,27.0,21.0,-100.00,NW,308,7.0,20.0,79,0.00,,,0.99,0.000000,,2013-03-06 11:42:00,
2013-03-06 06:52:00,27.0,21.0,-100.00,NW,308,7.0,20.0,79,0.00,,,0.99,0.000000,,2013-03-06 11:52:00,
2013-03-06 07:02:00,27.0,21.0,-100.00,NW,308,7.0,20.0,79,0.00,,,0.99,0.000000,,2013-03-06 12:02:00,
2013-03-06 07:33:00,27.0,21.0,-100.00,NW,320,8.0,20.0,79,0.00,,,0.97,0.000000,,2013-03-06 12:33:00,
2013-03-06 07:43:00,27.0,21.0,-100.00,NW,320,8.0,20.0,79,0.00,,,0.97,0.000000,,2013-03-06 12:43:00,
2013-03-06 07:53:00,27.0,21.0,-100.00,NW,320,8.0,20.0,79,0.00,,,0.97,0.000000,,2013-03-06 12:53:00,
2013-03-06 08:02:00,27.0,21.0,-100.00,NW,320,8.0,20.0,79,0.00,,,0.97,0.000000,,2013-03-06 13:02:00,
2013-03-06 08:32:00,27.0,22.0,-100.00,NW,310,8.0,18.0,80,0.00,,,0.94,10.000000,,2013-03-06 13:32:00,
2013-03-06 08:42:00,27.0,22.0,-100.00,NW,310,8.0,18.0,80,0.00,,,0.94,10.000000,,2013-03-06 13:42:00,
2013-03-06 08:52:00,27.0,22.0,-100.00,NW,310,8.0,18.0,80,0.00,,,0.94,10.000000,,2013-03-06 13:52:00,
2013-03-06 09:02:00,27.0,22.0,-100.00,NW,310,8.0,18.0,80,0.00,,,0.94,10.000000,,2013-03-06 14:02:00,
2013-03-06 09:32:00,28.0,23.0,-100.00,NW,313,9.0,21.0,80,0.00,,,0.94,82.000000,,2013-03-06 14:32:00,
2013-03-06 09:42:00,28.0,23.0,-100.00,NW,313,9.0,21.0,80,0.00,,,0.94,82.000000,,2013-03-06 14:42:00,
2013-03-06 09:53:00,28.0,23.0,-100.00,NW,313,9.0,21.0,80,0.00,,,0.94,82.000000,,2013-03-06 14:53:00,
2013-03-06 10:02:00,28.0,23.0,-100.00,NW,313,9.0,21.0,80,0.00,,,0.94,82.000000,,2013-03-06 15:02:00,
2013-03-06 10:32:00,29.0,22.0,-100.00,NW,308,12.0,28.0,74,0.00,,,0.94,149.000000,,2013-03-06 15:32:00,
2013-03-06 10:42:00,29.0,22.0,-100.00,NW,308,12.0,28.0,74,0.00,,,0.94,149.000000,,2013-03-06 15:42:00,
2013-03-06 10:52:00,29.0,22.0,-100.00,NW,308,12.0,28.0,74,0.00,,,0.94,149.000000,,2013-03-06 15:52:00,
2013-03-06 11:02:00,29.0,22.0,-100.00,NW,308,12.0,28.0,74,0.00,,,0.94,149.000000,,2013-03-06 16:02:00,
2013-03-06 11:32:00,30.0,23.0,-100.00,NW,318,15.0,27.0,75,0.00,,,0.93,219.000000,,2013-03-06 16:32:00,
2013-03-06 11:42:00,30.0,23.0,-100.00,NW,318,15.0,27.0,75,0.00,,,0.93,219.000000,,2013-03-06 16:42:00,
2013-03-06 11:52:00,30.0,23.0,-100.00,NW,318,15.0,27.0,75,0.00,,,0.93,219.000000,,2013-03-06 16:52:00,
2013-03-06 12:01:00,30.0,23.0,-100.00,NW,318,15.0,27.0,75,0.00,,,0.93,219.000000,,2013-03-06 17:01:00,
2013-03-06 12:32:00,29.0,22.0,-100.00,NW,322,10.0,29.0,74,0.00,,,0.92,186.000000,,2013-03-06 17:32:00,
2013-03-06 12:42:00,29.0,22.0,-100.00,NW,322,10.0,29.0,74,0.00,,,0.92,186.000000,,2013-03-06 17:42:00,
2013-03-06 12:53:00,29.0,22.0,-100.00,NW,322,10.0,29.0,74,0.00,,,0.92,186.000000,,2013-03-06 17:53:00,
2013-03-06 13:02:00,29.0,22.0,-100.00,NW,322,10.0,29.0,74,0.00,,,0.92,186.000000,,2013-03-06 18:02:00,
2013-03-06 13:32:00,29.0,23.0,-100.00,NW,318,11.0,27.0,78,0.00,,,0.84,135.000000,,2013-03-06 18:32:00,
2013-03-06 13:42:00,29.0,23.0,-100.00,NW,318,11.0,27.0,78,0.00,,,0.84,135.000000,,2013-03-06 18:42:00,
2013-03-06 13:53:00,29.0,23.0,-100.00,NW,318,11.0,27.0,78,0.00,,,0.84,135.000000,,2013-03-06 18:53:00,
2013-03-06 14:02:00,29.0,23.0,-100.00,NW,318,11.0,27.0,78,0.00,,,0.84,135.000000,,2013-03-06 19:02:00,
2013-03-06 14:33:00,29.0,24.0,-100.00,NW,318,14.0,25.0,80,0.00,,,0.66,151.000000,,2013-03-06 19:33:00,
2013-03-06 14:43:00,29.0,24.0,-100.00,NW,318,14.0,25.0,80,0.00,,,0.66,151.000000,,2013-03-06 19:43:00,
2013-03-06 14:53:00,29.0,24.0,-100.00,NW,318,14.0,25.0,80,0.00,,,0.66,151.000000,,2013-03-06 19:53:00,
2013-03-06 15:02:00,29.0,24.0,-100.00,NW,318,14.0,25.0,80,0.00,,,0.66,151.000000,,2013-03-06 20:02:00,
2013-03-06 15:33:00,30.0,24.0,-100.00,NW,308,10.0,24.0,78,0.01,,,0.65,143.000000,,2013-03-06 20:33:00,
2013-03-06 15:43:00,30.0,24.0,-100.00,NW,308,10.0,24.0,78,0.01,,,0.65,143.000000,,2013-03-06 20:43:00,
2013-03-06 15:53:00,30.0,24.0,-100.00,NW,308,10.0,24.0,78,0.01,,,0.65,143.000000,,2013-03-06 20:53:00,
2013-03-06 16:02:00,30.0,24.0,-100.00,NW,308,10.0,24.0,78,0.01,,,0.65,143.000000,,2013-03-06 21:02:00,
2013-03-06 16:33:00,29.0,24.0,-100.00,WNW,292,10.0,27.0,82,0.00,,,0.43,81.000000,,2013-03-06 21:33:00,
2013-03-06 16:42:00,29.0,24.0,-100.00,WNW,292,10.0,27.0,82,0.00,,,0.43,81.000000,,2013-03-06 21:42:00,
2013-03-06 16:52:00,29.0,24.0,-100.00,WNW,292,10.0,27.0,82,0.00,,,0.43,81.000000,,2013-03-06 21:52:00,
2013-03-06 17:02:00,29.0,24.0,-100.00,WNW,292,10.0,27.0,82,0.00,,,0.43,81.000000,,2013-03-06 22:02:00,
2013-03-06 17:32:00,29.0,25.0,-100.00,NW,313,8.0,24.0,86,0.00,,,0.07,31.000000,,2013-03-06 22:32:00,
2013-03-06 17:42:00,29.0,25.0,-100.00,NW,313,8.0,24.0,86,0.00,,,0.07,31.000000,,2013-03-06 22:42:00,
2013-03-06 17:52:00,29.0,25.0,-100.00,NW,313,8.0,24.0,86,0.00,,,0.07,31.000000,,2013-03-06 22:52:00,
2013-03-06 18:02:00,29.0,25.0,-100.00,NW,313,8.0,24.0,86,0.00,,,0.07,31.000000,,2013-03-06 23:02:00,
2013-03-06 18:32:00,29.0,26.0,-100.00,WNW,301,6.0,23.0,87,0.00,,,0.05,14.000000,,2013-03-06 23:32:00,
2013-03-06 18:42:00,29.0,26.0,-100.00,WNW,301,6.0,23.0,87,0.00,,,0.05,14.000000,,2013-03-06 23:42:00,
2013-03-06 18:52:00,29.0,26.0,-100.00,WNW,301,6.0,23.0,87,0.00,,,0.05,14.000000,,2013-03-06 23:52:00,
2013-03-06 19:02:00,29.0,26.0,-100.00,WNW,301,6.0,23.0,87,0.00,,,0.05,14.000000,,2013-03-07 00:02:00,
2013-03-06 19:32:00,29.0,26.0,-100.00,WNW,302,8.0,19.0,89,0.00,,,0.03,1.000000,,2013-03-07 00:32:00,
2013-03-06 19:42:00,29.0,26.0,-100.00,WNW,302,8.0,19.0,89,0.00,,,0.03,1.000000,,2013-03-07 00:42:00,
2013-03-06 19:52:00,29.0,26.0,-100.00,WNW,302,8.0,19.0,89,0.00,,,0.03,1.000000,,2013-03-07 00:52:00,
2013-03-06 20:02:00,29.0,26.0,-100.00,WNW,302,8.0,19.0,89,0.00,,,0.03,1.000000,,2013-03-07 01:02:00,
2013-03-06 20:32:00,29.0,26.0,-100.00,NW,311,5.0,22.0,90,0.00,,,0.02,0.000000,,2013-03-07 01:32:00,
2013-03-06 20:42:00,29.0,26.0,-100.00,NW,311,5.0,22.0,90,0.00,,,0.02,0.000000,,2013-03-07 01:42:00,
2013-03-06 20:52:00,29.0,26.0,-100.00,NW,311,5.0,22.0,90,0.00,,,0.02,0.000000,,2013-03-07 01:52:00,
2013-03-06 21:01:00,29.0,26.0,-100.00,NW,311,5.0,22.0,90,0.00,,,0.02,0.000000,,2013-03-07 02:01:00,
2013-03-06 21:32:00,29.0,27.0,-100.00,NW,311,8.0,22.0,91,0.00,,,-99.99,0.000000,,2013-03-07 02:32:00,
2013-03-06 21:42:00,29.0,27.0,-100.00,NW,311,8.0,22.0,91,0.00,,,-99.99,0.000000,,2013-03-07 02:42:00,
2013-03-06 21:52:00,29.0,27.0,-100.00,NW,311,8.0,22.0,91,0.00,,,-99.99,0.000000,,2013-03-07 02:52:00,
2013-03-06 22:02:00,29.0,27.0,-100.00,NW,311,8.0,22.0,91,0.00,,,-99.99,0.000000,,2013-03-07 03:02:00,
2013-03-06 22:32:00,29.0,26.0,-100.00,NNW,327,7.0,17.0,87,0.00,,,0.01,0.000000,,2013-03-07 03:32:00,
2013-03-06 22:42:00,29.0,26.0,-100.00,NNW,327,7.0,17.0,87,0.00,,,0.01,0.000000,,2013-03-07 03:42:00,
2013-03-06 22:52:00,29.0,26.0,-100.00,NNW,327,7.0,17.0,87,0.00,,,0.01,0.000000,,2013-03-07 03:52:00,
2013-03-06 23:02:00,29.0,26.0,-100.00,NNW,327,7.0,17.0,87,0.00,,,0.01,0.000000,,2013-03-07 04:02:00,
2013-03-06 23:32:00,29.0,25.0,-100.00,NNW,338,4.0,16.0,86,0.00,,,0.01,0.000000,,2013-03-07 04:32:00,
2013-03-06 23:42:00,29.0,25.0,-100.00,NNW,338,4.0,16.0,86,0.00,,,0.01,0.000000,,2013-03-07 04:42:00,
2013-03-06 23:52:00,29.0,25.0,-100.00,NNW,338,4.0,16.0,86,0.00,,,0.01,0.000000,,2013-03-07 04:52:00,